Location: *
(47.6569°N, 7.4256°E)
Time: 12:35:30
(UTC+00:00)

YAOGAN 3 - Pass Details

Date: 14 December 2019
Orbit: 625 x 627 km, 98.0° (Epoch: 26 January)

Event Time Altitude Azimuth Distance (km) Brightness Sun altitude
Rises 17:04:19 0° 160° (SSE) 2,902 8.0 -13.6°
Reaches altitude 10° 17:06:30 10° 159° (SSE) 2,000 7.2 -14.0°
Maximum altitude 17:10:51 76° 74° (ENE) 653 4.5 -14.7°
Drops below altitude 10° 17:15:14 10° 349° (N) 2,016 7.1 -15.4°
Sets 17:17:26 0° 348° (NNW) 2,928 8.0 -15.7°
